When you browse on this site, cookies collect data to enhance your experience and personalize the content and advertising you see.
Visit our Privacy Policy to learn more. By continuing to use the site, you agree to this use of cookies and data.
  • en Suisse
  • Liste des pays
  • À 7 jours
  • Température de l'eau
  • Carte satellitaire
  • Carte météo
  • Widgets météo
  • user-avatar
    Se connecter

    Météo par heure à Constantine

    Ce jour, 16 Juin, Dimanche

    Heure Température Précipitation Vent Pression Humidité
    00:00 +20°C° 0 mm 1 m/s 711 mmHg 73%
    01:00 +20°C° 0 mm 1 m/s 711 mmHg 74%
    02:00 +20°C° 0 mm 1 m/s 711 mmHg 74%
    03:00 +20°C° 0 mm 1 m/s 710 mmHg 74%
    04:00 +21°C° 0 mm 1 m/s 711 mmHg 70%
    05:00 +21°C° 0 mm 1 m/s 711 mmHg 66%
    06:00 +23°C° 0 mm 1 m/s 711 mmHg 61%
    07:00 +24°C° 0 mm 1 m/s 711 mmHg 56%
    08:00 +26°C° 0 mm 1 m/s 712 mmHg 51%
    09:00 +28°C° 0 mm 2 m/s 712 mmHg 45%
    10:00 +30°C° 0 mm 2 m/s 712 mmHg 41%
    11:00 +32°C° 0 mm 2 m/s 712 mmHg 37%
    12:00 +34°C° 0 mm 2 m/s 712 mmHg 32%
    13:00 +34°C° 0 mm 3 m/s 711 mmHg 36%
    14:00 +33°C° 0 mm 4 m/s 711 mmHg 39%
    15:00 +32°C° 0 mm 5 m/s 710 mmHg 43%
    16:00 +29°C° 0 mm 5 m/s 710 mmHg 49%
    17:00 +27°C° 0 mm 4 m/s 710 mmHg 55%
    18:00 +25°C° 0 mm 3 m/s 710 mmHg 61%
    19:00 +24°C° 0 mm 3 m/s 710 mmHg 64%
    20:00 +21°C° 0 mm 2 m/s 710 mmHg 67%
    21:00 +20°C° 0 mm 2 m/s 710 mmHg 71%
    22:00 +20°C° 0 mm 2 m/s 710 mmHg 71%
    23:00 +21°C° 0 mm 1 m/s 709 mmHg 71%

    Demain, 17 Juin, Lundi

    Heure Température Précipitation Vent Pression Humidité
    00:00 +21°C° 0 mm 1 m/s 709 mmHg 70%
    01:00 +20°C° 0.1 mm 1 m/s 709 mmHg 74%
    02:00 +20°C° 0.1 mm 1 m/s 709 mmHg 77%
    03:00 +19°C° 0.1 mm 1 m/s 709 mmHg 81%
    04:00 +19°C° 0 mm 1 m/s 709 mmHg 76%
    05:00 +20°C° 0 mm 1 m/s 709 mmHg 71%
    06:00 +21°C° 0 mm 1 m/s 709 mmHg 66%
    07:00 +22°C° 0.7 mm 1 m/s 710 mmHg 61%
    08:00 +23°C° 0.7 mm 2 m/s 710 mmHg 56%
    09:00 +24°C° 0.7 mm 2 m/s 710 mmHg 52%
    10:00 +26°C° 0.2 mm 3 m/s 710 mmHg 45%
    11:00 +28°C° 0.2 mm 4 m/s 711 mmHg 39%
    12:00 +30°C° 0.2 mm 5 m/s 711 mmHg 32%
    13:00 +29°C° 0.1 mm 5 m/s 710 mmHg 37%
    14:00 +29°C° 0.1 mm 5 m/s 710 mmHg 42%
    15:00 +28°C° 0.1 mm 5 m/s 709 mmHg 46%
    16:00 +26°C° 0 mm 4 m/s 709 mmHg 50%
    17:00 +25°C° 0 mm 4 m/s 709 mmHg 55%
    18:00 +22°C° 0 mm 3 m/s 710 mmHg 59%
    19:00 +23°C° 0 mm 2 m/s 710 mmHg 62%
    20:00 +21°C° 0 mm 2 m/s 710 mmHg 64%
    21:00 +21°C° 0 mm 1 m/s 710 mmHg 66%
    22:00 +18°C° 0 mm 0 m/s 710 mmHg 67%
    23:00 +18°C° 0 mm 0 m/s 710 mmHg 67%

    Après-demain, 18 Juin, Mardi

    Heure Température Précipitation Vent Pression Humidité
    00:00 +18°C° 0 mm 0 m/s 710 mmHg 67%
    01:00 +18°C° 0 mm 0 m/s 709 mmHg 67%
    02:00 +18°C° 0 mm 0 m/s 709 mmHg 67%
    03:00 +18°C° 0 mm 0 m/s 709 mmHg 67%
    04:00 +19°C° 0 mm 0 m/s 710 mmHg 64%
    05:00 +19°C° 0 mm 0 m/s 710 mmHg 61%
    06:00 +20°C° 0 mm 0 m/s 710 mmHg 59%
    07:00 +22°C° 0 mm 0 m/s 710 mmHg 52%
    08:00 +26°C° 0 mm 1 m/s 711 mmHg 46%
    09:00 +28°C° 0 mm 1 m/s 711 mmHg 39%
    10:00 +30°C° 0 mm 1 m/s 711 mmHg 37%
    11:00 +31°C° 0 mm 2 m/s 711 mmHg 34%
    12:00 +33°C° 0 mm 3 m/s 711 mmHg 31%
    13:00 +33°C° 0 mm 3 m/s 711 mmHg 31%
    14:00 +34°C° 0 mm 4 m/s 710 mmHg 31%
    15:00 +34°C° 0 mm 5 m/s 710 mmHg 31%
    16:00 +32°C° 0 mm 4 m/s 710 mmHg 35%
    17:00 +30°C° 0 mm 4 m/s 710 mmHg 39%
    18:00 +28°C° 0 mm 3 m/s 709 mmHg 44%
    19:00 +27°C° 0 mm 2 m/s 710 mmHg 47%
    20:00 +25°C° 0 mm 1 m/s 710 mmHg 50%
    21:00 +24°C° 0 mm 1 m/s 710 mmHg 54%
    22:00 +24°C° 0 mm 1 m/s 710 mmHg 54%
    23:00 +24°C° 0 mm 1 m/s 710 mmHg 53%

    19 Juin, Mercredi

    Heure Température Précipitation Vent Pression Humidité
    00:00 +22°C° 0 mm 0 m/s 710 mmHg 53%
    01:00 +23°C° 0 mm 1 m/s 709 mmHg 53%
    02:00 +23°C° 0 mm 1 m/s 709 mmHg 52%
    03:00 +23°C° 0 mm 1 m/s 709 mmHg 52%
    04:00 +25°C° 0 mm 1 m/s 709 mmHg 48%
    05:00 +26°C° 0 mm 1 m/s 710 mmHg 45%
    06:00 +27°C° 0 mm 2 m/s 710 mmHg 42%
    07:00 +29°C° 0 mm 3 m/s 710 mmHg 36%
    08:00 +33°C° 0 mm 4 m/s 711 mmHg 29%
    09:00 +35°C° 0 mm 5 m/s 712 mmHg 23%
    10:00 +36°C° 0 mm 5 m/s 711 mmHg 21%
    11:00 +37°C° 0 mm 4 m/s 711 mmHg 20%
    12:00 +38°C° 0 mm 4 m/s 711 mmHg 18%
    13:00 +38°C° 0 mm 4 m/s 711 mmHg 19%
    14:00 +39°C° 0 mm 5 m/s 711 mmHg 20%
    15:00 +39°C° 0 mm 5 m/s 710 mmHg 22%
    16:00 +36°C° 0 mm 4 m/s 710 mmHg 28%
    17:00 +34°C° 0 mm 4 m/s 710 mmHg 34%
    18:00 +31°C° 0 mm 3 m/s 710 mmHg 40%
    19:00 +29°C° 0 mm 2 m/s 710 mmHg 44%
    20:00 +28°C° 0 mm 1 m/s 710 mmHg 47%
    21:00 +26°C° 0 mm 1 m/s 710 mmHg 51%
    22:00 +26°C° 0 mm 1 m/s 709 mmHg 50%
    23:00 +26°C° 0 mm 1 m/s 709 mmHg 50%

    20 Juin, Jeudi

    Heure Température Précipitation Vent Pression Humidité
    00:00 +26°C° 0 mm 1 m/s 709 mmHg 50%
    01:00 +26°C° 0.1 mm 1 m/s 708 mmHg 51%
    02:00 +25°C° 0.1 mm 1 m/s 708 mmHg 52%
    03:00 +25°C° 0.1 mm 1 m/s 708 mmHg 52%
    04:00 +26°C° 0 mm 1 m/s 708 mmHg 48%
    05:00 +28°C° 0 mm 1 m/s 709 mmHg 44%
    06:00 +29°C° 0 mm 1 m/s 709 mmHg 40%
    07:00 +31°C° 0 mm 1 m/s 710 mmHg 34%
    08:00 +35°C° 0 mm 2 m/s 710 mmHg 27%
    09:00 +37°C° 0 mm 3 m/s 711 mmHg 21%
    10:00 +38°C° 0 mm 4 m/s 711 mmHg 20%
    11:00 +40°C° 0 mm 5 m/s 711 mmHg 19%
    12:00 +41°C° 0 mm 6 m/s 711 mmHg 18%
    13:00 +40°C° 0 mm 6 m/s 711 mmHg 20%
    14:00 +40°C° 0 mm 6 m/s 710 mmHg 23%
    15:00 +39°C° 0 mm 6 m/s 710 mmHg 25%
    16:00 +36°C° 0 mm 5 m/s 710 mmHg 30%
    17:00 +34°C° 0 mm 4 m/s 710 mmHg 35%
    18:00 +32°C° 0 mm 2 m/s 710 mmHg 40%
    19:00 +30°C° 0 mm 2 m/s 709 mmHg 45%
    20:00 +28°C° 0 mm 2 m/s 709 mmHg 50%
    21:00 +27°C° 0 mm 2 m/s 709 mmHg 55%
    22:00 +27°C° 0 mm 2 m/s 709 mmHg 51%
    23:00 +27°C° 0 mm 1 m/s 708 mmHg 47%

    21 Juin, Vendredi

    Heure Température Précipitation Vent Pression Humidité
    00:00 +27°C° 0 mm 1 m/s 708 mmHg 43%
    01:00 +26°C° 0 mm 1 m/s 708 mmHg 43%
    02:00 +26°C° 0 mm 1 m/s 708 mmHg 43%
    03:00 +25°C° 0 mm 1 m/s 707 mmHg 44%
    04:00 +26°C° 0 mm 1 m/s 708 mmHg 41%
    05:00 +28°C° 0 mm 1 m/s 708 mmHg 38%
    06:00 +29°C° 0 mm 1 m/s 709 mmHg 36%
    07:00 +32°C° 0 mm 2 m/s 709 mmHg 30%
    08:00 +35°C° 0 mm 4 m/s 710 mmHg 25%
    09:00 +39°C° 0 mm 5 m/s 710 mmHg 19%
    10:00 +40°C° 0 mm 6 m/s 710 mmHg 17%
    11:00 +42°C° 0 mm 6 m/s 710 mmHg 16%
    12:00 +44°C° 0 mm 7 m/s 710 mmHg 14%
    13:00 +41°C° 0 mm 6 m/s 710 mmHg 17%
    14:00 +40°C° 0 mm 6 m/s 709 mmHg 21%
    15:00 +39°C° 0 mm 5 m/s 709 mmHg 25%
    16:00 +36°C° 0 mm 4 m/s 709 mmHg 30%
    17:00 +35°C° 0 mm 3 m/s 709 mmHg 35%
    18:00 +32°C° 0 mm 1 m/s 708 mmHg 40%
    19:00 +29°C° 0 mm 2 m/s 708 mmHg 49%
    20:00 +27°C° 0 mm 2 m/s 708 mmHg 59%
    21:00 +24°C° 0 mm 2 m/s 708 mmHg 69%
    22:00 +23°C° 0 mm 2 m/s 708 mmHg 70%
    23:00 +23°C° 0 mm 2 m/s 708 mmHg 72%
    Voir plus